Find Starlink 32431

NORAD ID: 61256 Int'l Des: 2024-175 Owner: SPXS Country: US Constellation: starlink operational
LEOCIRCULAR

Current View

Loading 3D Globe...

About Starlink 32431

Starlink 32431 (NORAD 61256) is a starlink constellation satellite (v2 mini) launched Sep 25, 2024 by SPXS of US. It operates in LEO, CIRCULAR orbit with a mass of 730.00 kg.

About Starlink 32431

Description loading...

Upcoming Passes

Passes for default location (London). Set your location on the main map for personalized predictions.

Altitude History

Loading altitude history...

Two-Line Element Set

1 61256U 24175P 26170.91535066 .00003147 00000-0 10423-3 0 9998
2 61256 53.1594 78.5891 0001486 99.6535 260.4636 15.34402583 97113
Epoch: Jun 19, 2026 • Age: 16 hours

Current Status

Altitude 466.2 km
Velocity 7.63 km/s
Sub-Earth Point -12.68°S, 139.46°E
Launch Date Sep 25, 2024
Age 1.7 years
Type internet

Technical Details

Classification Payload
Mass 730.00 kg
Dry Mass 700.00 kg
Total Mass 730.00 kg
Length 0.30 m
Diameter 4.10 m
Span 29.00 m
Shape Box + pan
Manufacturer SPXS
Bus Type Starlink V2M
Phase Status In Orbit
Owner/State SPXS/US

Most Searched